Station Historical Data
Daily Summary for January 26, 2012 Units:  English    Metric   Both
« Previous Day
Next Day »
Daily Weekly Monthly Yearly Custom
  High: Low: Average:
Temperature: 62.8 °F 44.3 °F 58.6 °F
Dew Point: 59.2 °F 43.2 °F 56.4 °F
Humidity: 96% 74% 93%
Wind Speed: 19.0mph 2.0mph 7.9mph
Wind Gust: 19.0mph - -
Wind- - SSE
Pressure: 29.93 in 29.58 in -
Precipitation: 0.84 in    
Historical Graphs
 
 
Tabular Data for January 26, 2012
Time Temperature Dew Point Pressure Wind Wind Speed Wind Gust Humidity Rainfall Rate (Hourly) Conditions
00:00 62.7 °F 54.3 °F 29.93 in ESE 7.0 mph 14.0 mph 74% 0.00 in
00:02 62.8 °F 54.4 °F 29.93 in East 13.0 mph 15.0 mph 74% 0.00 in
00:07 62.8 °F 54.8 °F 29.92 in SE 10.0 mph 10.0 mph 75% 0.00 in
00:12 62.8 °F 54.8 °F 29.92 in SE 10.0 mph 13.0 mph 75% 0.00 in
00:17 62.8 °F 54.8 °F 29.93 in SE 8.0 mph 15.0 mph 75% 0.00 in
00:22 62.8 °F 54.8 °F 29.92 in ESE 13.0 mph 14.0 mph 75% 0.00 in
00:27 62.7 °F 54.7 °F 29.92 in SE 12.0 mph 13.0 mph 75% 0.00 in
00:32 62.7 °F 55.0 °F 29.92 in SE 8.0 mph 12.0 mph 76% 0.00 in
00:37 62.5 °F 54.8 °F 29.92 in SE 9.0 mph 11.0 mph 76% 0.00 in
00:42 62.5 °F 55.2 °F 29.92 in SE 9.0 mph 14.0 mph 77% 0.00 in
00:47 62.5 °F 55.2 °F 29.92 in SE 9.0 mph 11.0 mph 77% 0.00 in
00:52 62.4 °F 55.1 °F 29.91 in SE 9.0 mph 12.0 mph 77% 0.00 in
00:57 62.3 °F 55.0 °F 29.91 in ESE 9.0 mph 10.0 mph 77% 0.00 in
01:02 62.3 °F 55.0 °F 29.91 in SE 5.0 mph 10.0 mph 77% 0.00 in
01:07 62.3 °F 55.4 °F 29.91 in SE 11.0 mph 14.0 mph 78% 0.00 in
01:12 62.2 °F 55.3 °F 29.91 in SE 8.0 mph 10.0 mph 78% 0.00 in
01:17 62.2 °F 55.6 °F 29.91 in SE 7.0 mph 13.0 mph 79% 0.00 in
01:22 62.2 °F 55.6 °F 29.91 in ESE 9.0 mph 14.0 mph 79% 0.00 in
01:27 62.1 °F 55.5 °F 29.91 in ESE 7.0 mph 14.0 mph 79% 0.00 in
01:32 62.1 °F 55.9 °F 29.90 in ESE 9.0 mph 11.0 mph 80% 0.00 in
01:37 62.1 °F 55.9 °F 29.88 in ESE 11.0 mph 15.0 mph 80% 0.00 in
01:42 62.0 °F 55.8 °F 29.89 in SSE 12.0 mph 15.0 mph 80% 0.00 in
01:47 62.0 °F 56.1 °F 29.89 in SE 10.0 mph 15.0 mph 81% 0.00 in
01:52 62.1 °F 56.2 °F 29.89 in SE 11.0 mph 14.0 mph 81% 0.00 in
01:57 62.1 °F 56.2 °F 29.89 in SE 9.0 mph 13.0 mph 81% 0.00 in
02:02 62.1 °F 56.2 °F 29.89 in SE 16.0 mph 16.0 mph 81% 0.00 in
02:07 62.2 °F 56.3 °F 29.89 in ESE 10.0 mph 15.0 mph 81% 0.00 in
02:12 62.0 °F 56.8 °F 29.88 in ESE 11.0 mph 15.0 mph 83% 0.00 in
02:18 61.6 °F 56.7 °F 29.89 in SE 11.0 mph 15.0 mph 84% 0.00 in
02:23 61.2 °F 56.7 °F 29.88 in SE 12.0 mph 13.0 mph 85% 0.00 in
02:28 60.9 °F 56.7 °F 29.88 in ESE 13.0 mph 13.0 mph 86% 0.11 in
02:33 60.9 °F 57.0 °F 29.88 in SE 8.0 mph 14.0 mph 87% 0.07 in
02:38 60.8 °F 56.9 °F 29.88 in SE 8.0 mph 14.0 mph 87% 0.05 in
02:43 60.7 °F 56.8 °F 29.88 in SSE 7.0 mph 12.0 mph 87% 0.00 in
02:48 60.6 °F 57.0 °F 29.88 in SE 9.0 mph 13.0 mph 88% 0.00 in
02:53 60.5 °F 56.9 °F 29.88 in SE 9.0 mph 12.0 mph 88% 0.00 in
02:58 60.3 °F 57.0 °F 29.87 in SE 8.0 mph 11.0 mph 89% 0.00 in
03:03 60.0 °F 57.1 °F 29.87 in ESE 11.0 mph 12.0 mph 90% 0.00 in
03:08 59.8 °F 56.9 °F 29.87 in ESE 10.0 mph 11.0 mph 90% 0.00 in
03:13 59.6 °F 56.7 °F 29.87 in SE 9.0 mph 11.0 mph 90% 0.00 in
03:18 59.4 °F 56.8 °F 29.87 in ESE 9.0 mph 13.0 mph 91% 0.00 in
03:23 59.3 °F 56.7 °F 29.86 in ESE 9.0 mph 12.0 mph 91% 0.00 in
03:28 59.4 °F 56.8 °F 29.86 in SE 8.0 mph 12.0 mph 91% 0.00 in
03:33 59.4 °F 57.1 °F 29.86 in SE 9.0 mph 15.0 mph 92% 0.00 in
03:38 59.4 °F 57.1 °F 29.85 in SE 11.0 mph 18.0 mph 92% 0.00 in
03:43 59.4 °F 57.1 °F 29.85 in ESE 11.0 mph 17.0 mph 92% 0.00 in
03:48 59.3 °F 57.3 °F 29.85 in SE 10.0 mph 16.0 mph 93% 0.00 in
03:53 59.3 °F 57.3 °F 29.84 in SE 9.0 mph 11.0 mph 93% 0.00 in
03:58 59.3 °F 57.3 °F 29.85 in ESE 8.0 mph 14.0 mph 93% 0.00 in
04:03 59.4 °F 57.4 °F 29.85 in SE 9.0 mph 10.0 mph 93% 0.00 in
04:08 59.5 °F 57.5 °F 29.85 in SE 6.0 mph 8.0 mph 93% 0.00 in
04:13 59.6 °F 57.6 °F 29.85 in ESE 10.0 mph 11.0 mph 93% 0.00 in
04:18 59.6 °F 57.6 °F 29.85 in SSE 10.0 mph 10.0 mph 93% 0.00 in
04:23 59.6 °F 57.6 °F 29.85 in ESE 11.0 mph 12.0 mph 93% 0.00 in
04:28 59.6 °F 57.6 °F 29.85 in SE 6.0 mph 8.0 mph 93% 0.00 in
04:33 59.5 °F 57.5 °F 29.85 in SSW 9.0 mph 9.0 mph 93% 0.00 in
04:38 59.5 °F 57.5 °F 29.86 in SSE 5.0 mph 7.0 mph 93% 0.00 in
04:43 59.7 °F 57.7 °F 29.85 in ESE 6.0 mph 16.0 mph 93% 0.00 in
04:48 59.7 °F 57.7 °F 29.85 in ESE 9.0 mph 12.0 mph 93% 0.00 in
04:53 59.8 °F 57.8 °F 29.85 in SSE 7.0 mph 12.0 mph 93% 0.00 in
04:58 59.9 °F 57.9 °F 29.86 in SSE 6.0 mph 11.0 mph 93% 0.00 in
05:03 59.9 °F 58.2 °F 29.86 in SSE 9.0 mph 12.0 mph 94% 0.00 in
05:08 60.0 °F 58.3 °F 29.86 in SSE 5.0 mph 10.0 mph 94% 0.00 in
05:13 60.1 °F 58.4 °F 29.86 in SE 3.0 mph 7.0 mph 94% 0.00 in
05:18 60.1 °F 58.4 °F 29.86 in SSE 7.0 mph 7.0 mph 94% 0.00 in
05:23 60.2 °F 58.5 °F 29.86 in SE 5.0 mph 9.0 mph 94% 0.00 in
05:28 60.4 °F 58.7 °F 29.86 in SE 6.0 mph 11.0 mph 94% 0.00 in
05:33 60.5 °F 58.8 °F 29.86 in ESE 6.0 mph 9.0 mph 94% 0.00 in
05:38 60.6 °F 58.9 °F 29.86 in SE 7.0 mph 9.0 mph 94% 0.00 in
05:43 60.6 °F 58.9 °F 29.86 in SSE 5.0 mph 8.0 mph 94% 0.00 in
05:48 60.6 °F 58.9 °F 29.85 in SE 7.0 mph 8.0 mph 94% 0.00 in
05:53 60.6 °F 58.9 °F 29.85 in ESE 7.0 mph 11.0 mph 94% 0.00 in
05:58 60.6 °F 58.9 °F 29.85 in SSW 6.0 mph 8.0 mph 94% 0.00 in
06:04 60.5 °F 58.8 °F 29.86 in SSE 7.0 mph 8.0 mph 94% 0.00 in
06:08 60.6 °F 58.9 °F 29.86 in SE 5.0 mph 11.0 mph 94% 0.00 in
06:14 60.7 °F 59.0 °F 29.86 in SE 7.0 mph 9.0 mph 94% 0.00 in
06:19 60.7 °F 59.0 °F 29.86 in SSW 3.0 mph 8.0 mph 94% 0.00 in
06:24 60.7 °F 59.0 °F 29.87 in South 14.0 mph 14.0 mph 94% 0.00 in
06:29 60.8 °F 59.1 °F 29.87 in South 8.0 mph 11.0 mph 94% 0.00 in
06:34 60.9 °F 59.2 °F 29.88 in SSW 4.0 mph 9.0 mph 94% 0.00 in
06:38 60.9 °F 59.2 °F 29.88 in South 5.0 mph 8.0 mph 94% 0.00 in
06:43 60.8 °F 59.1 °F 29.88 in South 7.0 mph 8.0 mph 94% 0.00 in
06:48 60.8 °F 59.1 °F 29.87 in South 6.0 mph 9.0 mph 94% 0.00 in
06:54 60.8 °F 59.1 °F 29.87 in SE 4.0 mph 9.0 mph 94% 0.00 in
06:59 60.8 °F 59.1 °F 29.87 in South 5.0 mph 9.0 mph 94% 0.00 in
07:04 60.8 °F 59.1 °F 29.87 in South 7.0 mph 9.0 mph 94% 0.00 in
07:09 60.8 °F 59.1 °F 29.87 in SE 10.0 mph 11.0 mph 94% 0.00 in
07:14 60.8 °F 59.1 °F 29.88 in SSE 9.0 mph 10.0 mph 94% 0.00 in
07:19 60.7 °F 59.0 °F 29.87 in South 7.0 mph 12.0 mph 94% 0.00 in
07:24 60.7 °F 59.0 °F 29.87 in SSE 4.0 mph 11.0 mph 94% 0.05 in
07:29 60.6 °F 58.9 °F 29.86 in SE 5.0 mph 10.0 mph 94% 0.07 in
07:34 60.5 °F 58.8 °F 29.86 in SSE 12.0 mph 12.0 mph 94% 0.07 in
07:39 60.5 °F 59.1 °F 29.87 in SE 5.0 mph 10.0 mph 95% 0.10 in
07:44 60.4 °F 59.0 °F 29.86 in SSE 6.0 mph 11.0 mph 95% 0.06 in
07:49 60.3 °F 58.9 °F 29.86 in SSE 12.0 mph 15.0 mph 95% 0.04 in
07:54 60.2 °F 58.8 °F 29.88 in SSE 7.0 mph 14.0 mph 95% 0.00 in
07:59 60.2 °F 58.8 °F 29.87 in SE 7.0 mph 13.0 mph 95% 0.00 in
08:04 60.1 °F 58.7 °F 29.87 in SE 8.0 mph 14.0 mph 95% 0.00 in
08:09 60.1 °F 58.7 °F 29.87 in SSE 8.0 mph 13.0 mph 95% 0.00 in
08:14 60.0 °F 58.6 °F 29.87 in SE 7.0 mph 13.0 mph 95% 0.00 in
08:19 59.9 °F 58.2 °F 29.87 in SE 6.0 mph 11.0 mph 94% 0.00 in
08:24 59.9 °F 58.5 °F 29.87 in SE 10.0 mph 11.0 mph 95% 0.00 in
08:29 59.8 °F 58.4 °F 29.87 in South 5.0 mph 13.0 mph 95% 0.07 in
08:34 59.8 °F 58.4 °F 29.88 in SE 8.0 mph 15.0 mph 95% 0.07 in
08:39 59.7 °F 58.3 °F 29.87 in SE 11.0 mph 12.0 mph 95% 0.10 in
08:44 59.7 °F 58.3 °F 29.86 in SSW 5.0 mph 10.0 mph 95% 0.10 in
08:49 59.6 °F 58.2 °F 29.85 in SE 8.0 mph 8.0 mph 95% 0.11 in
08:54 59.6 °F 58.2 °F 29.86 in SSW 2.0 mph 9.0 mph 95% 0.06 in
08:59 59.6 °F 58.2 °F 29.85 in SE 5.0 mph 7.0 mph 95% 0.04 in
09:04 59.6 °F 58.2 °F 29.85 in SSE 4.0 mph 7.0 mph 95% 0.00 in
09:09 59.5 °F 58.1 °F 29.86 in SSW 7.0 mph 7.0 mph 95% 0.00 in
09:14 59.5 °F 58.1 °F 29.86 in SSE 8.0 mph 10.0 mph 95% 0.00 in
09:19 59.6 °F 58.2 °F 29.85 in SSE 8.0 mph 10.0 mph 95% 0.00 in
09:24 59.6 °F 57.9 °F 29.85 in SE 4.0 mph 12.0 mph 94% 0.00 in
09:29 59.6 °F 57.9 °F 29.85 in SE 6.0 mph 14.0 mph 94% 0.00 in
09:34 59.6 °F 57.9 °F 29.85 in SSE 6.0 mph 10.0 mph 94% 0.00 in
09:39 59.6 °F 57.9 °F 29.85 in SE 4.0 mph 9.0 mph 94% 0.00 in
09:44 59.6 °F 57.9 °F 29.85 in SE 6.0 mph 8.0 mph 94% 0.00 in
09:49 59.5 °F 58.1 °F 29.85 in SSE 7.0 mph 8.0 mph 95% 0.00 in
09:54 59.5 °F 58.1 °F 29.85 in SSE 7.0 mph 9.0 mph 95% 0.00 in
09:59 59.4 °F 58.0 °F 29.85 in ESE 6.0 mph 10.0 mph 95% 0.00 in
10:04 59.4 °F 58.0 °F 29.85 in SE 7.0 mph 9.0 mph 95% 0.05 in
10:09 59.3 °F 57.9 °F 29.85 in SE 7.0 mph 9.0 mph 95% 0.05 in
10:14 59.3 °F 57.9 °F 29.84 in SE 11.0 mph 11.0 mph 95% 0.05 in
10:19 59.3 °F 57.9 °F 29.84 in SE 4.0 mph 9.0 mph 95% 0.04 in
10:24 59.2 °F 57.8 °F 29.84 in SE 8.0 mph 11.0 mph 95% 0.00 in
10:29 59.2 °F 57.8 °F 29.85 in SE 7.0 mph 7.0 mph 95% 0.28 in
10:35 59.2 °F 57.8 °F 29.85 in SE 4.0 mph 7.0 mph 95% 0.20 in
10:40 59.1 °F 57.7 °F 29.84 in SE 6.0 mph 9.0 mph 95% 0.19 in
10:45 59.1 °F 57.7 °F 29.84 in SE 7.0 mph 8.0 mph 95% 0.26 in
10:50 59.1 °F 57.7 °F 29.83 in SE 5.0 mph 8.0 mph 95% 0.27 in
10:55 59.0 °F 57.6 °F 29.83 in ESE 6.0 mph 9.0 mph 95% 0.24 in
11:00 59.0 °F 57.6 °F 29.83 in SE 4.0 mph 11.0 mph 95% 0.22 in
11:05 59.0 °F 57.6 °F 29.82 in ESE 7.0 mph 10.0 mph 95% 0.13 in
11:10 59.0 °F 57.6 °F 29.82 in SE 7.0 mph 9.0 mph 95% 0.12 in
11:15 59.1 °F 57.7 °F 29.82 in SE 5.0 mph 11.0 mph 95% 0.06 in
11:20 59.1 °F 57.7 °F 29.82 in SE 11.0 mph 12.0 mph 95% 0.04 in
11:25 59.1 °F 57.7 °F 29.82 in SE 7.0 mph 9.0 mph 95% 0.04 in
11:30 59.1 °F 57.7 °F 29.82 in ESE 5.0 mph 8.0 mph 95% 0.04 in
11:35 59.0 °F 57.6 °F 29.82 in SE 5.0 mph 10.0 mph 95% 0.04 in
11:40 59.0 °F 57.6 °F 29.82 in SSE 3.0 mph 9.0 mph 95% 0.12 in
11:45 59.0 °F 57.6 °F 29.82 in SSE 5.0 mph 7.0 mph 95% 0.15 in
11:50 59.0 °F 57.6 °F 29.82 in SW 4.0 mph 9.0 mph 95% 0.19 in
11:55 59.0 °F 57.6 °F 29.81 in SE 5.0 mph 10.0 mph 95% 0.21 in
12:00 59.0 °F 57.6 °F 29.81 in SE 5.0 mph 7.0 mph 95% 0.19 in
12:05 58.9 °F 57.5 °F 29.80 in South 6.0 mph 9.0 mph 95% 0.25 in
12:10 58.9 °F 57.5 °F 29.79 in SE 6.0 mph 9.0 mph 95% 0.20 in
12:15 58.8 °F 57.4 °F 29.78 in SE 7.0 mph 10.0 mph 95% 0.20 in
12:20 58.8 °F 57.4 °F 29.78 in SSE 4.0 mph 7.0 mph 95% 0.15 in
12:25 58.8 °F 57.4 °F 29.78 in SE 2.0 mph 4.0 mph 95% 0.13 in
12:30 58.8 °F 57.4 °F 29.77 in ESE 5.0 mph 5.0 mph 95% 0.11 in
12:35 58.8 °F 57.4 °F 29.77 in SE 4.0 mph 8.0 mph 95% 0.17 in
12:40 58.7 °F 57.3 °F 29.76 in ESE 7.0 mph 10.0 mph 95% 0.17 in
12:45 58.7 °F 57.3 °F 29.76 in East 8.0 mph 9.0 mph 95% 0.14 in
12:50 58.7 °F 57.3 °F 29.75 in SE 5.0 mph 10.0 mph 95% 0.07 in
12:55 58.7 °F 57.3 °F 29.75 in ESE 6.0 mph 9.0 mph 95% 0.06 in
13:00 58.8 °F 57.4 °F 29.75 in SE 4.0 mph 7.0 mph 95% 0.06 in
13:05 58.8 °F 57.4 °F 29.74 in SE 5.0 mph 9.0 mph 95% 0.04 in
13:10 58.8 °F 57.4 °F 29.74 in SSE 5.0 mph 7.0 mph 95% 0.00 in
13:15 58.9 °F 57.5 °F 29.74 in SSE 9.0 mph 9.0 mph 95% 0.00 in
13:20 58.9 °F 57.5 °F 29.73 in ESE 8.0 mph 10.0 mph 95% 0.00 in
13:25 59.0 °F 57.6 °F 29.73 in ESE 7.0 mph 10.0 mph 95% 0.00 in
13:30 58.9 °F 57.5 °F 29.72 in SE 7.0 mph 9.0 mph 95% 0.00 in
13:35 59.0 °F 57.6 °F 29.71 in SE 8.0 mph 10.0 mph 95% 0.00 in
13:36 59.0 °F 57.6 °F 29.71 in ESE 8.0 mph 10.0 mph 95% 0.00 in
13:41 59.0 °F 57.6 °F 29.71 in SE 7.0 mph 10.0 mph 95% 0.00 in
13:46 59.0 °F 57.6 °F 29.70 in SE 8.0 mph 9.0 mph 95% 0.00 in
13:51 59.0 °F 57.6 °F 29.70 in SE 6.0 mph 7.0 mph 95% 0.00 in
13:56 59.0 °F 57.6 °F 29.69 in ESE 7.0 mph 11.0 mph 95% 0.04 in
14:01 59.0 °F 57.6 °F 29.68 in ESE 5.0 mph 12.0 mph 95% 0.04 in
14:06 59.0 °F 57.6 °F 29.64 in ESE 6.0 mph 11.0 mph 95% 0.04 in
14:11 59.1 °F 57.7 °F 29.68 in SE 7.0 mph 10.0 mph 95% 0.04 in
14:16 59.2 °F 57.8 °F 29.68 in ESE 12.0 mph 12.0 mph 95% 0.04 in
14:21 59.2 °F 57.8 °F 29.66 in ESE 11.0 mph 12.0 mph 95% 0.04 in
14:26 59.2 °F 57.8 °F 29.66 in ESE 12.0 mph 14.0 mph 95% 0.04 in
14:31 59.3 °F 57.9 °F 29.66 in ESE 11.0 mph 14.0 mph 95% 0.00 in
14:36 59.5 °F 58.1 °F 29.65 in SE 9.0 mph 13.0 mph 95% 0.00 in
14:41 59.5 °F 58.1 °F 29.65 in ESE 6.0 mph 16.0 mph 95% 0.00 in
14:46 59.6 °F 58.2 °F 29.65 in SE 8.0 mph 14.0 mph 95% 0.00 in
14:51 59.5 °F 58.1 °F 29.64 in ESE 12.0 mph 12.0 mph 95% 0.00 in
14:56 59.7 °F 58.3 °F 29.65 in SE 10.0 mph 14.0 mph 95% 0.00 in
15:02 59.7 °F 58.3 °F 29.64 in ESE 9.0 mph 13.0 mph 95% 0.00 in
15:07 59.6 °F 58.2 °F 29.64 in ESE 11.0 mph 15.0 mph 95% 0.00 in
15:12 59.5 °F 57.8 °F 29.64 in ESE 10.0 mph 14.0 mph 94% 0.00 in
15:17 59.5 °F 58.1 °F 29.64 in ESE 10.0 mph 14.0 mph 95% 0.00 in
15:22 59.5 °F 58.1 °F 29.64 in ESE 11.0 mph 15.0 mph 95% 0.00 in
15:27 59.5 °F 57.8 °F 29.63 in ESE 11.0 mph 14.0 mph 94% 0.00 in
15:32 59.6 °F 57.9 °F 29.62 in ESE 12.0 mph 16.0 mph 94% 0.00 in
15:37 59.8 °F 58.1 °F 29.63 in SE 11.0 mph 13.0 mph 94% 0.00 in
15:42 60.1 °F 58.4 °F 29.62 in ESE 15.0 mph 15.0 mph 94% 0.00 in
15:47 60.2 °F 58.5 °F 29.62 in SSE 9.0 mph 14.0 mph 94% 0.00 in
15:52 60.2 °F 58.5 °F 29.62 in SE 11.0 mph 14.0 mph 94% 0.00 in
15:57 60.2 °F 58.5 °F 29.62 in SE 5.0 mph 11.0 mph 94% 0.00 in
16:02 60.1 °F 58.4 °F 29.62 in ESE 10.0 mph 12.0 mph 94% 0.00 in
16:07 60.0 °F 58.3 °F 29.62 in ESE 6.0 mph 12.0 mph 94% 0.00 in
16:12 60.0 °F 58.3 °F 29.62 in SSE 8.0 mph 12.0 mph 94% 0.00 in
16:17 60.0 °F 58.3 °F 29.62 in SSE 11.0 mph 13.0 mph 94% 0.00 in
16:22 59.9 °F 58.2 °F 29.61 in SE 6.0 mph 11.0 mph 94% 0.00 in
16:27 59.9 °F 58.2 °F 29.61 in SE 9.0 mph 11.0 mph 94% 0.00 in
16:32 59.9 °F 58.2 °F 29.61 in SSE 14.0 mph 14.0 mph 94% 0.00 in
16:37 59.9 °F 58.2 °F 29.61 in SE 8.0 mph 11.0 mph 94% 0.00 in
16:42 60.0 °F 58.3 °F 29.61 in ESE 7.0 mph 13.0 mph 94% 0.00 in
16:47 60.1 °F 58.4 °F 29.61 in SE 6.0 mph 15.0 mph 94% 0.00 in
16:52 60.1 °F 58.1 °F 29.60 in SSE 8.0 mph 18.0 mph 93% 0.00 in
16:57 60.2 °F 58.2 °F 29.59 in SE 7.0 mph 13.0 mph 93% 0.00 in
17:02 60.3 °F 58.3 °F 29.59 in SE 6.0 mph 12.0 mph 93% 0.00 in
17:07 60.3 °F 58.3 °F 29.59 in SSE 8.0 mph 14.0 mph 93% 0.00 in
17:12 60.3 °F 58.3 °F 29.59 in SSE 9.0 mph 14.0 mph 93% 0.00 in
17:17 60.2 °F 58.2 °F 29.59 in South 8.0 mph 15.0 mph 93% 0.00 in
17:22 60.2 °F 58.5 °F 29.59 in SSE 9.0 mph 13.0 mph 94% 0.00 in
17:27 60.2 °F 58.5 °F 29.59 in SE 10.0 mph 11.0 mph 94% 0.00 in
17:32 60.2 °F 58.5 °F 29.58 in SSE 8.0 mph 11.0 mph 94% 0.00 in
17:38 60.3 °F 58.6 °F 29.58 in SSE 8.0 mph 15.0 mph 94% 0.00 in
17:43 60.3 °F 58.6 °F 29.58 in SSE 7.0 mph 12.0 mph 94% 0.00 in
17:48 60.3 °F 58.6 °F 29.59 in SE 6.0 mph 11.0 mph 94% 0.00 in
17:53 60.3 °F 58.6 °F 29.59 in SSE 17.0 mph 17.0 mph 94% 0.00 in
17:58 60.5 °F 58.8 °F 29.59 in SSE 9.0 mph 14.0 mph 94% 0.00 in
18:03 60.6 °F 58.9 °F 29.59 in SSE 11.0 mph 14.0 mph 94% 0.00 in
18:08 60.7 °F 59.0 °F 29.59 in South 8.0 mph 11.0 mph 94% 0.00 in
18:13 60.8 °F 59.1 °F 29.59 in SE 10.0 mph 14.0 mph 94% 0.00 in
18:18 60.7 °F 59.0 °F 29.59 in South 11.0 mph 13.0 mph 94% 0.00 in
18:23 60.7 °F 59.0 °F 29.58 in SSE 9.0 mph 18.0 mph 94% 0.00 in
18:28 60.8 °F 59.1 °F 29.58 in SW 9.0 mph 15.0 mph 94% 0.00 in
18:33 60.8 °F 58.8 °F 29.59 in SW 7.0 mph 10.0 mph 93% 0.00 in
18:38 60.4 °F 58.4 °F 29.59 in South 5.0 mph 15.0 mph 93% 1.05 in
18:43 59.9 °F 57.9 °F 29.59 in SW 11.0 mph 16.0 mph 93% 0.16 in
18:48 59.5 °F 57.8 °F 29.59 in SW 12.0 mph 16.0 mph 94% 0.07 in
18:53 59.2 °F 57.5 °F 29.59 in SSW 7.0 mph 11.0 mph 94% 0.04 in
18:58 59.2 °F 57.5 °F 29.60 in SSW 7.0 mph 11.0 mph 94% 0.00 in
19:03 59.2 °F 57.5 °F 29.60 in SW 11.0 mph 11.0 mph 94% 0.00 in
19:08 59.2 °F 57.8 °F 29.60 in South 5.0 mph 11.0 mph 95% 0.00 in
19:13 59.2 °F 57.8 °F 29.60 in WSW 4.0 mph 9.0 mph 95% 0.00 in
19:18 59.2 °F 57.8 °F 29.61 in SW 8.0 mph 11.0 mph 95% 0.00 in
19:23 59.2 °F 57.5 °F 29.61 in SW 8.0 mph 13.0 mph 94% 0.00 in
19:28 59.2 °F 57.5 °F 29.61 in SW 7.0 mph 9.0 mph 94% 0.00 in
19:33 59.1 °F 57.4 °F 29.61 in West 11.0 mph 12.0 mph 94% 0.00 in
19:38 59.1 °F 57.4 °F 29.60 in SSW 6.0 mph 12.0 mph 94% 0.00 in
19:43 59.0 °F 57.3 °F 29.61 in SSW 9.0 mph 13.0 mph 94% 0.00 in
19:48 58.9 °F 57.2 °F 29.60 in SW 14.0 mph 14.0 mph 94% 0.00 in
19:53 58.8 °F 57.1 °F 29.60 in South 7.0 mph 11.0 mph 94% 0.00 in
19:58 58.8 °F 57.1 °F 29.60 in WSW 6.0 mph 12.0 mph 94% 0.00 in
20:03 58.8 °F 57.1 °F 29.60 in WSW 5.0 mph 13.0 mph 94% 0.00 in
20:09 58.7 °F 57.3 °F 29.60 in WSW 11.0 mph 13.0 mph 95% 0.00 in
20:14 58.7 °F 57.3 °F 29.61 in WSW 6.0 mph 7.0 mph 95% 0.00 in
20:19 58.7 °F 57.3 °F 29.61 in SW 7.0 mph 14.0 mph 95% 0.00 in
20:24 58.3 °F 56.6 °F 29.62 in NNW 17.0 mph 17.0 mph 94% 0.71 in
20:29 56.5 °F 54.2 °F 29.63 in WNW 19.0 mph 19.0 mph 92% 0.12 in
20:34 55.2 °F 53.2 °F 29.63 in WNW 13.0 mph 16.0 mph 93% 0.27 in
20:39 54.5 °F 52.8 °F 29.61 in WNW 9.0 mph 11.0 mph 94% 0.13 in
20:44 54.2 °F 52.8 °F 29.62 in WNW 5.0 mph 13.0 mph 95% 0.11 in
20:49 53.8 °F 52.4 °F 29.63 in WNW 6.0 mph 14.0 mph 95% 0.08 in
20:54 53.6 °F 52.2 °F 29.63 in WNW 7.0 mph 11.0 mph 95% 0.08 in
20:59 53.4 °F 52.0 °F 29.62 in WNW 5.0 mph 10.0 mph 95% 0.42 in
21:04 53.3 °F 51.9 °F 29.63 in West 6.0 mph 9.0 mph 95% 0.13 in
21:09 53.1 °F 51.7 °F 29.64 in WNW 7.0 mph 10.0 mph 95% 0.09 in
21:14 53.0 °F 51.6 °F 29.64 in West 6.0 mph 10.0 mph 95% 0.05 in
21:19 52.9 °F 51.5 °F 29.64 in WNW 4.0 mph 8.0 mph 95% 0.04 in
21:24 52.6 °F 51.2 °F 29.64 in West 5.0 mph 10.0 mph 95% 0.00 in
21:29 52.4 °F 51.0 °F 29.64 in WNW 5.0 mph 10.0 mph 95% 0.00 in
21:34 52.1 °F 50.7 °F 29.64 in West 5.0 mph 10.0 mph 95% 0.00 in
21:39 51.9 °F 50.5 °F 29.64 in WSW 7.0 mph 10.0 mph 95% 0.00 in
21:44 51.7 °F 50.3 °F 29.64 in West 4.0 mph 10.0 mph 95% 0.00 in
21:50 51.6 °F 50.2 °F 29.65 in WNW 8.0 mph 11.0 mph 95% 0.00 in
21:55 51.5 °F 50.1 °F 29.65 in WNW 7.0 mph 9.0 mph 95% 0.00 in
21:59 51.5 °F 50.1 °F 29.65 in West 3.0 mph 6.0 mph 95% 0.00 in
22:05 51.5 °F 50.1 °F 29.66 in West 6.0 mph 10.0 mph 95% 0.00 in
22:10 51.4 °F 50.0 °F 29.65 in West 5.0 mph 14.0 mph 95% 0.00 in
22:15 51.2 °F 49.8 °F 29.66 in WNW 11.0 mph 17.0 mph 95% 0.00 in
22:20 51.0 °F 49.3 °F 29.66 in WNW 8.0 mph 13.0 mph 94% 0.00 in
22:25 50.8 °F 49.1 °F 29.66 in WNW 11.0 mph 14.0 mph 94% 0.00 in
22:30 50.7 °F 49.3 °F 29.67 in WNW 8.0 mph 12.0 mph 95% 0.00 in
22:35 50.5 °F 49.1 °F 29.67 in West 8.0 mph 15.0 mph 95% 0.00 in
22:40 50.2 °F 48.5 °F 29.68 in WNW 14.0 mph 18.0 mph 94% 0.00 in
22:45 49.8 °F 48.2 °F 29.68 in WNW 10.0 mph 14.0 mph 94% 0.00 in
22:50 49.5 °F 47.8 °F 29.69 in West 5.0 mph 16.0 mph 94% 0.00 in
22:55 48.9 °F 47.2 °F 29.69 in WNW 7.0 mph 15.0 mph 94% 0.00 in
23:00 48.2 °F 46.8 °F 29.70 in West 9.0 mph 13.0 mph 95% 0.00 in
23:05 47.9 °F 46.5 °F 29.70 in WNW 10.0 mph 12.0 mph 95% 0.00 in
23:10 47.7 °F 46.3 °F 29.70 in West 13.0 mph 13.0 mph 95% 0.00 in
23:15 47.3 °F 45.9 °F 29.70 in WNW 9.0 mph 16.0 mph 95% 0.00 in
23:20 47.0 °F 45.7 °F 29.71 in WNW 5.0 mph 15.0 mph 95% 0.00 in
23:25 46.8 °F 45.5 °F 29.71 in West 9.0 mph 14.0 mph 95% 0.00 in
23:30 46.4 °F 45.0 °F 29.72 in WNW 8.0 mph 15.0 mph 95% 0.00 in
23:36 45.9 °F 44.5 °F 29.72 in WNW 10.0 mph 13.0 mph 95% 0.00 in
23:41 45.4 °F 44.0 °F 29.73 in NW 8.0 mph 14.0 mph 95% 0.00 in
23:46 45.0 °F 43.9 °F 29.73 in West 13.0 mph 13.0 mph 96% 0.00 in
23:51 44.5 °F 43.4 °F 29.73 in WSW 7.0 mph 13.0 mph 96% 0.00 in
23:56 44.3 °F 43.2 °F 29.73 in WNW 12.0 mph 16.0 mph 96% 0.00 in
Compliments of Weather Underground